Location: Burla
(50.9568°N, 10.4983°E)
Time: 20:57:37
(UTC+00:00)

Timation 2 Rocket - Pass Details

Date: 18 January 2026
Orbit: 907 x 1072 km, 70.0° (Epoch: 15 February)

Event Time Altitude Azimuth Distance (km) Brightness Sun altitude
Rises 04:42:57 0° 205° (SSW) 3,776 6.9 -22.9°
Reaches altitude 10° 04:45:35 10° 205° (SSW) 2,806 6.2 -22.5°
Maximum altitude 04:52:08 81° 119° (ESE) 1,008 4.1 -21.4°
Drops below altitude 10° 04:58:27 10° 33° (NNE) 2,704 6.6 -20.4°
Sets 05:00:56 0° 33° (NNE) 3,631 7.3 -20.1°
